Time,TemperatureF,DewpointF,PressureIn,WindDirection,WindDirectionDegrees,WindSpeedMPH,WindSpeedGustMPH,Humidity,HourlyPrecipIn,Conditions,Clouds,dailyrainin,SolarRadiationWatts/m^2,SoftwareType,DateUTC
2013-03-09 00:02:00,60.0,51.0,-100.00,NE,45,2.0,-999.0,73,0.00,,,-99.99,0.000000,,2013-03-09 05:02:00,
2013-03-09 00:12:00,60.0,51.0,-100.00,NE,41,3.0,-999.0,73,0.00,,,-99.99,0.000000,,2013-03-09 05:12:00,
2013-03-09 00:22:00,60.0,51.0,-100.00,NE,41,3.0,-999.0,73,0.00,,,-99.99,0.000000,,2013-03-09 05:22:00,
2013-03-09 00:32:00,60.0,51.0,-100.00,NNE,14,2.0,-999.0,73,0.00,,,-99.99,0.000000,,2013-03-09 05:32:00,
2013-03-09 00:42:00,58.0,50.0,-100.00,North,5,2.0,-999.0,73,0.00,,,-99.99,0.000000,,2013-03-09 05:42:00,
2013-03-09 00:53:00,58.0,50.0,-100.00,North,5,2.0,-999.0,73,0.00,,,-99.99,0.000000,,2013-03-09 05:53:00,
2013-03-09 01:02:00,58.0,50.0,-100.00,NE,36,2.0,-999.0,75,0.00,,,-99.99,0.000000,,2013-03-09 06:02:00,
2013-03-09 01:11:00,58.0,50.0,-100.00,NNE,17,2.0,-999.0,75,0.00,,,-99.99,0.000000,,2013-03-09 06:11:00,
2013-03-09 01:22:00,58.0,50.0,-100.00,NNE,17,2.0,-999.0,75,0.00,,,-99.99,0.000000,,2013-03-09 06:22:00,
2013-03-09 01:32:00,58.0,50.0,-100.00,North,349,2.0,-999.0,76,0.00,,,-99.99,0.000000,,2013-03-09 06:32:00,
2013-03-09 01:42:00,57.0,50.0,-100.00,North,356,2.0,-999.0,76,0.00,,,-99.99,0.000000,,2013-03-09 06:42:00,
2013-03-09 01:52:00,57.0,50.0,-100.00,North,356,2.0,-999.0,76,0.00,,,-99.99,0.000000,,2013-03-09 06:52:00,
2013-03-09 02:01:00,57.0,50.0,-100.00,NNE,13,2.0,-999.0,76,0.00,,,-99.99,0.000000,,2013-03-09 07:01:00,
2013-03-09 02:11:00,58.0,50.0,-100.00,NNE,13,2.0,-999.0,75,0.00,,,-99.99,0.000000,,2013-03-09 07:11:00,
2013-03-09 02:21:00,58.0,50.0,-100.00,NNE,13,2.0,-999.0,75,0.00,,,-99.99,0.000000,,2013-03-09 07:21:00,
2013-03-09 02:32:00,58.0,50.0,-100.00,North,358,2.0,-999.0,75,0.00,,,-99.99,0.000000,,2013-03-09 07:32:00,
2013-03-09 02:42:00,58.0,50.0,-100.00,North,3,2.0,-999.0,75,0.00,,,-99.99,0.000000,,2013-03-09 07:42:00,
2013-03-09 02:52:00,58.0,50.0,-100.00,North,3,2.0,-999.0,75,0.00,,,-99.99,0.000000,,2013-03-09 07:52:00,
2013-03-09 03:01:00,58.0,50.0,-100.00,NNE,15,3.0,-999.0,75,0.00,,,-99.99,0.000000,,2013-03-09 08:01:00,
2013-03-09 03:11:00,58.0,50.0,-100.00,NNE,15,2.0,-999.0,75,0.00,,,-99.99,0.000000,,2013-03-09 08:11:00,
2013-03-09 03:22:00,58.0,50.0,-100.00,NNE,15,2.0,-999.0,75,0.00,,,-99.99,0.000000,,2013-03-09 08:22:00,
2013-03-09 03:32:00,57.0,50.0,-100.00,NW,324,1.0,-999.0,76,0.00,,,-99.99,0.000000,,2013-03-09 08:32:00,
2013-03-09 03:42:00,58.0,51.0,-100.00,NNW,329,2.0,-999.0,77,0.00,,,-99.99,0.000000,,2013-03-09 08:42:00,
2013-03-09 03:52:00,58.0,51.0,-100.00,NNW,329,2.0,-999.0,77,0.00,,,-99.99,0.000000,,2013-03-09 08:52:00,
2013-03-09 04:02:00,58.0,51.0,-100.00,NNW,345,2.0,-999.0,78,0.00,,,-99.99,0.000000,,2013-03-09 09:02:00,
2013-03-09 04:12:00,57.0,50.0,-100.00,NNW,347,2.0,-999.0,79,0.00,,,-99.99,0.000000,,2013-03-09 09:12:00,
2013-03-09 04:21:00,57.0,50.0,-100.00,NNW,347,2.0,-999.0,79,0.00,,,-99.99,0.000000,,2013-03-09 09:21:00,
2013-03-09 04:32:00,57.0,51.0,-100.00,NNW,343,2.0,-999.0,81,0.00,,,-99.99,0.000000,,2013-03-09 09:32:00,
2013-03-09 04:42:00,57.0,51.0,-100.00,North,2,2.0,-999.0,80,0.00,,,-99.99,0.000000,,2013-03-09 09:42:00,
2013-03-09 04:52:00,57.0,51.0,-100.00,North,2,2.0,-999.0,80,0.00,,,-99.99,0.000000,,2013-03-09 09:52:00,
2013-03-09 05:01:00,57.0,51.0,-100.00,North,2,2.0,-999.0,80,0.00,,,-99.99,0.000000,,2013-03-09 10:01:00,
2013-03-09 05:11:00,57.0,51.0,-100.00,NNW,348,2.0,-999.0,81,0.00,,,-99.99,0.000000,,2013-03-09 10:11:00,
2013-03-09 05:21:00,57.0,51.0,-100.00,NNW,348,2.0,-999.0,81,0.00,,,-99.99,0.000000,,2013-03-09 10:21:00,
2013-03-09 05:31:00,57.0,51.0,-100.00,NW,314,2.0,-999.0,82,0.00,,,-99.99,0.000000,,2013-03-09 10:31:00,
2013-03-09 05:42:00,57.0,52.0,-100.00,WNW,301,3.0,-999.0,84,0.00,,,-99.99,0.000000,,2013-03-09 10:42:00,
2013-03-09 05:52:00,57.0,52.0,-100.00,WNW,301,3.0,-999.0,84,0.00,,,-99.99,0.000000,,2013-03-09 10:52:00,
2013-03-09 06:01:00,56.0,52.0,-100.00,NW,309,4.0,-999.0,85,0.00,,,-99.99,0.000000,,2013-03-09 11:01:00,
2013-03-09 06:11:00,55.0,51.0,-100.00,NW,314,3.0,-999.0,84,0.00,,,-99.99,0.000000,,2013-03-09 11:11:00,
2013-03-09 06:21:00,55.0,51.0,-100.00,NW,314,3.0,-999.0,84,0.00,,,-99.99,0.000000,,2013-03-09 11:21:00,
2013-03-09 06:32:00,55.0,50.0,-100.00,NW,319,4.0,-999.0,85,0.00,,,-99.99,0.000000,,2013-03-09 11:32:00,
2013-03-09 06:42:00,55.0,51.0,-100.00,NW,318,3.0,-999.0,87,0.00,,,-99.99,0.400000,,2013-03-09 11:42:00,
2013-03-09 06:52:00,55.0,51.0,-100.00,NW,318,3.0,-999.0,87,0.00,,,-99.99,0.400000,,2013-03-09 11:52:00,
2013-03-09 07:01:00,55.0,51.0,-100.00,NW,318,4.0,-999.0,87,0.00,,,-99.99,4.900000,,2013-03-09 12:01:00,
2013-03-09 07:11:00,55.0,51.0,-100.00,NW,315,4.0,-999.0,87,0.00,,,-99.99,16.700001,,2013-03-09 12:11:00,
2013-03-09 07:21:00,55.0,51.0,-100.00,NW,315,4.0,-999.0,87,0.00,,,-99.99,16.700001,,2013-03-09 12:21:00,
2013-03-09 07:32:00,56.0,52.0,-100.00,NNW,332,3.0,-999.0,86,0.00,,,-99.99,32.500000,,2013-03-09 12:32:00,
2013-03-09 07:42:00,56.0,52.0,-100.00,NNW,330,3.0,-999.0,85,0.00,,,-99.99,95.300003,,2013-03-09 12:42:00,
2013-03-09 07:52:00,56.0,52.0,-100.00,NNW,330,3.0,-999.0,85,0.00,,,-99.99,95.300003,,2013-03-09 12:52:00,
2013-03-09 08:02:00,58.0,53.0,-100.00,NNW,346,3.0,-999.0,83,0.00,,,-99.99,184.699997,,2013-03-09 13:02:00,
2013-03-09 08:11:00,60.0,54.0,-100.00,NNW,347,3.0,-999.0,81,0.00,,,-99.99,244.399994,,2013-03-09 13:11:00,
2013-03-09 08:21:00,60.0,54.0,-100.00,NNW,347,3.0,-999.0,81,0.00,,,-99.99,244.399994,,2013-03-09 13:21:00,
2013-03-09 08:32:00,61.0,54.0,-100.00,North,352,3.0,-999.0,78,0.00,,,-99.99,297.600006,,2013-03-09 13:32:00,
2013-03-09 08:42:00,62.0,54.0,-100.00,North,355,4.0,-999.0,75,0.00,,,-99.99,355.500000,,2013-03-09 13:42:00,
2013-03-09 08:52:00,62.0,54.0,-100.00,North,355,4.0,-999.0,75,0.00,,,-99.99,355.500000,,2013-03-09 13:52:00,
2013-03-09 09:01:00,63.0,55.0,-100.00,NNE,16,5.0,-999.0,73,0.00,,,-99.99,365.700012,,2013-03-09 14:01:00,
2013-03-09 09:11:00,65.0,55.0,-100.00,North,8,4.0,-999.0,69,0.00,,,-99.99,469.299988,,2013-03-09 14:11:00,
2013-03-09 09:21:00,65.0,55.0,-100.00,North,8,4.0,-999.0,69,0.00,,,-99.99,469.299988,,2013-03-09 14:21:00,
2013-03-09 09:32:00,67.0,56.0,-100.00,North,11,5.0,-999.0,66,0.00,,,-99.99,468.899994,,2013-03-09 14:32:00,
2013-03-09 09:42:00,67.0,55.0,-100.00,North,5,5.0,-999.0,63,0.00,,,-99.99,286.500000,,2013-03-09 14:42:00,
2013-03-09 09:52:00,67.0,55.0,-100.00,North,5,5.0,-999.0,63,0.00,,,-99.99,286.500000,,2013-03-09 14:52:00,
2013-03-09 10:02:00,68.0,55.0,-100.00,NNE,17,4.0,-999.0,63,0.00,,,-99.99,414.100006,,2013-03-09 15:02:00,
2013-03-09 10:12:00,69.0,56.0,-100.00,NNE,15,4.0,-999.0,63,0.00,,,-99.99,349.899994,,2013-03-09 15:12:00,
2013-03-09 10:22:00,69.0,56.0,-100.00,NNE,15,4.0,-999.0,63,0.00,,,-99.99,349.899994,,2013-03-09 15:22:00,
2013-03-09 10:32:00,70.0,57.0,-100.00,NNE,17,4.0,-999.0,62,0.00,,,-99.99,623.700012,,2013-03-09 15:32:00,
2013-03-09 10:42:00,71.0,58.0,-100.00,ENE,57,5.0,-999.0,63,0.00,,,-99.99,586.299988,,2013-03-09 15:42:00,
2013-03-09 10:52:00,71.0,58.0,-100.00,ENE,57,5.0,-999.0,63,0.00,,,-99.99,586.299988,,2013-03-09 15:52:00,
2013-03-09 11:01:00,72.0,58.0,-100.00,ENE,68,7.0,-999.0,62,0.00,,,-99.99,732.000000,,2013-03-09 16:01:00,
2013-03-09 11:11:00,72.0,58.0,-100.00,ENE,76,8.0,-999.0,62,0.00,,,-99.99,615.900024,,2013-03-09 16:11:00,
2013-03-09 11:21:00,72.0,58.0,-100.00,ENE,76,8.0,-999.0,62,0.00,,,-99.99,615.900024,,2013-03-09 16:21:00,
2013-03-09 11:32:00,72.0,58.0,-100.00,ENE,69,7.0,-999.0,60,0.00,,,-99.99,526.900024,,2013-03-09 16:32:00,
2013-03-09 11:42:00,72.0,57.0,-100.00,ENE,58,7.0,-999.0,59,0.00,,,-99.99,629.099976,,2013-03-09 16:42:00,
2013-03-09 11:52:00,72.0,57.0,-100.00,ENE,58,7.0,-999.0,59,0.00,,,-99.99,629.099976,,2013-03-09 16:52:00,
2013-03-09 12:01:00,73.0,58.0,-100.00,East,84,9.0,-999.0,58,0.00,,,-99.99,845.000000,,2013-03-09 17:01:00,
2013-03-09 12:11:00,73.0,57.0,-100.00,East,90,8.0,-999.0,57,0.00,,,-99.99,659.599976,,2013-03-09 17:11:00,
2013-03-09 12:22:00,73.0,57.0,-100.00,East,90,8.0,-999.0,57,0.00,,,-99.99,659.599976,,2013-03-09 17:22:00,
2013-03-09 12:32:00,74.0,57.0,-100.00,ENE,76,8.0,-999.0,56,0.00,,,-99.99,984.000000,,2013-03-09 17:32:00,
2013-03-09 12:42:00,74.0,57.0,-100.00,East,81,8.0,-999.0,55,0.00,,,-99.99,938.000000,,2013-03-09 17:42:00,
2013-03-09 12:52:00,74.0,57.0,-100.00,East,81,8.0,-999.0,55,0.00,,,-99.99,938.000000,,2013-03-09 17:52:00,
2013-03-09 13:02:00,73.0,57.0,-100.00,ENE,58,6.0,-999.0,55,0.00,,,-99.99,576.700012,,2013-03-09 18:02:00,
2013-03-09 13:11:00,74.0,57.0,-100.00,East,80,8.0,-999.0,55,0.00,,,-99.99,845.000000,,2013-03-09 18:11:00,
2013-03-09 13:21:00,74.0,57.0,-100.00,East,80,8.0,-999.0,55,0.00,,,-99.99,845.000000,,2013-03-09 18:21:00,
2013-03-09 13:32:00,74.0,57.0,-100.00,East,81,9.0,-999.0,55,0.00,,,-99.99,972.000000,,2013-03-09 18:32:00,
2013-03-09 13:42:00,74.0,57.0,-100.00,ENE,78,10.0,-999.0,54,0.00,,,-99.99,832.000000,,2013-03-09 18:42:00,
2013-03-09 13:52:00,74.0,57.0,-100.00,ENE,78,10.0,-999.0,54,0.00,,,-99.99,832.000000,,2013-03-09 18:52:00,
2013-03-09 14:01:00,73.0,57.0,-100.00,East,84,9.0,-999.0,55,0.00,,,-99.99,581.799988,,2013-03-09 19:01:00,
2013-03-09 14:12:00,73.0,57.0,-100.00,East,81,9.0,-999.0,56,0.00,,,-99.99,586.500000,,2013-03-09 19:12:00,
2013-03-09 14:22:00,73.0,57.0,-100.00,East,81,9.0,-999.0,56,0.00,,,-99.99,586.500000,,2013-03-09 19:22:00,
2013-03-09 14:32:00,73.0,57.0,-100.00,ENE,65,8.0,-999.0,56,0.00,,,-99.99,549.599976,,2013-03-09 19:32:00,
2013-03-09 14:42:00,74.0,58.0,-100.00,East,80,10.0,-999.0,57,0.00,,,-99.99,777.000000,,2013-03-09 19:42:00,
2013-03-09 14:52:00,74.0,58.0,-100.00,East,80,10.0,-999.0,57,0.00,,,-99.99,777.000000,,2013-03-09 19:52:00,
2013-03-09 15:01:00,73.0,58.0,-100.00,East,79,11.0,-999.0,59,0.00,,,-99.99,607.599976,,2013-03-09 20:01:00,
2013-03-09 15:11:00,73.0,58.0,-100.00,East,80,11.0,-999.0,58,0.00,,,-99.99,696.000000,,2013-03-09 20:11:00,
2013-03-09 15:22:00,73.0,58.0,-100.00,East,80,11.0,-999.0,58,0.00,,,-99.99,696.000000,,2013-03-09 20:22:00,
2013-03-09 15:32:00,72.0,57.0,-100.00,ENE,69,11.0,-999.0,59,0.00,,,-99.99,576.599976,,2013-03-09 20:32:00,
2013-03-09 15:42:00,72.0,57.0,-100.00,East,82,11.0,-999.0,59,0.00,,,-99.99,532.900024,,2013-03-09 20:42:00,
2013-03-09 15:52:00,72.0,57.0,-100.00,East,82,11.0,-999.0,59,0.00,,,-99.99,532.900024,,2013-03-09 20:52:00,
2013-03-09 16:02:00,72.0,57.0,-100.00,ENE,78,10.0,-999.0,60,0.00,,,-99.99,470.200012,,2013-03-09 21:02:00,
2013-03-09 16:12:00,72.0,57.0,-100.00,ENE,77,10.0,-999.0,60,0.00,,,-99.99,346.299988,,2013-03-09 21:12:00,
2013-03-09 16:22:00,72.0,57.0,-100.00,ENE,77,10.0,-999.0,60,0.00,,,-99.99,346.299988,,2013-03-09 21:22:00,
2013-03-09 16:32:00,70.0,57.0,-100.00,ENE,69,9.0,-999.0,61,0.00,,,-99.99,160.000000,,2013-03-09 21:32:00,
2013-03-09 16:42:00,70.0,56.0,-100.00,ENE,71,10.0,-999.0,62,0.00,,,-99.99,168.000000,,2013-03-09 21:42:00,
2013-03-09 16:52:00,70.0,56.0,-100.00,ENE,71,10.0,-999.0,62,0.00,,,-99.99,168.000000,,2013-03-09 21:52:00,
2013-03-09 17:01:00,70.0,56.0,-100.00,ENE,77,10.0,-999.0,62,0.00,,,-99.99,193.000000,,2013-03-09 22:01:00,
2013-03-09 17:11:00,70.0,56.0,-100.00,ENE,68,8.0,-999.0,61,0.00,,,-99.99,242.600006,,2013-03-09 22:11:00,
2013-03-09 17:21:00,70.0,56.0,-100.00,ENE,68,8.0,-999.0,61,0.00,,,-99.99,242.600006,,2013-03-09 22:21:00,
2013-03-09 17:32:00,69.0,55.0,-100.00,ENE,74,9.0,-999.0,61,0.00,,,-99.99,82.800003,,2013-03-09 22:32:00,
2013-03-09 17:42:00,69.0,55.0,-100.00,ENE,66,7.0,-999.0,62,0.00,,,-99.99,72.699997,,2013-03-09 22:42:00,
2013-03-09 17:52:00,69.0,55.0,-100.00,ENE,66,7.0,-999.0,62,0.00,,,-99.99,72.699997,,2013-03-09 22:52:00,
2013-03-09 18:01:00,68.0,55.0,-100.00,ENE,71,8.0,-999.0,61,0.00,,,-99.99,60.000000,,2013-03-09 23:01:00,
2013-03-09 18:11:00,68.0,54.0,-100.00,ENE,73,9.0,-999.0,61,0.00,,,-99.99,41.099998,,2013-03-09 23:11:00,
2013-03-09 18:21:00,68.0,54.0,-100.00,ENE,73,9.0,-999.0,61,0.00,,,-99.99,41.099998,,2013-03-09 23:21:00,
2013-03-09 18:32:00,68.0,54.0,-100.00,ENE,76,9.0,-999.0,60,0.00,,,-99.99,19.299999,,2013-03-09 23:32:00,
2013-03-09 18:42:00,68.0,54.0,-100.00,ENE,74,8.0,-999.0,62,0.00,,,-99.99,3.700000,,2013-03-09 23:42:00,
2013-03-09 18:52:00,68.0,54.0,-100.00,ENE,74,8.0,-999.0,62,0.00,,,-99.99,3.700000,,2013-03-09 23:52:00,
2013-03-09 19:01:00,68.0,54.0,-100.00,ENE,71,8.0,-999.0,61,0.00,,,-99.99,0.100000,,2013-03-10 00:01:00,
2013-03-09 19:11:00,67.0,54.0,-100.00,ENE,76,7.0,-999.0,61,0.00,,,-99.99,0.000000,,2013-03-10 00:11:00,
2013-03-09 19:22:00,67.0,54.0,-100.00,ENE,76,7.0,-999.0,61,0.00,,,-99.99,0.000000,,2013-03-10 00:22:00,
2013-03-09 19:32:00,67.0,54.0,-100.00,ENE,71,5.0,-999.0,61,0.00,,,-99.99,0.000000,,2013-03-10 00:32:00,
2013-03-09 19:42:00,67.0,54.0,-100.00,ENE,73,6.0,-999.0,61,0.00,,,-99.99,0.000000,,2013-03-10 00:42:00,
2013-03-09 19:52:00,67.0,54.0,-100.00,ENE,73,6.0,-999.0,61,0.00,,,-99.99,0.000000,,2013-03-10 00:52:00,
2013-03-09 20:01:00,68.0,54.0,-100.00,ENE,76,6.0,-999.0,62,0.00,,,-99.99,0.000000,,2013-03-10 01:01:00,
2013-03-09 20:11:00,68.0,55.0,-100.00,East,85,8.0,-999.0,63,0.00,,,-99.99,0.000000,,2013-03-10 01:11:00,
2013-03-09 20:21:00,68.0,55.0,-100.00,East,85,8.0,-999.0,63,0.00,,,-99.99,0.000000,,2013-03-10 01:21:00,
2013-03-09 20:32:00,68.0,55.0,-100.00,East,79,6.0,-999.0,62,0.00,,,-99.99,0.000000,,2013-03-10 01:32:00,
2013-03-09 20:42:00,68.0,55.0,-100.00,ENE,78,8.0,-999.0,62,0.00,,,-99.99,0.000000,,2013-03-10 01:42:00,
2013-03-09 20:52:00,68.0,55.0,-100.00,ENE,78,8.0,-999.0,62,0.00,,,-99.99,0.000000,,2013-03-10 01:52:00,
2013-03-09 21:01:00,68.0,54.0,-100.00,East,82,7.0,-999.0,62,0.00,,,-99.99,0.000000,,2013-03-10 02:01:00,
2013-03-09 21:11:00,67.0,54.0,-100.00,ENE,78,7.0,-999.0,61,0.00,,,-99.99,0.000000,,2013-03-10 02:11:00,
2013-03-09 21:22:00,67.0,54.0,-100.00,ENE,78,7.0,-999.0,61,0.00,,,-99.99,0.000000,,2013-03-10 02:22:00,
2013-03-09 21:32:00,67.0,54.0,-100.00,East,80,6.0,-999.0,62,0.00,,,-99.99,0.000000,,2013-03-10 02:32:00,
2013-03-09 21:42:00,67.0,54.0,-100.00,East,81,6.0,-999.0,62,0.00,,,-99.99,0.000000,,2013-03-10 02:42:00,
2013-03-09 21:52:00,67.0,54.0,-100.00,East,81,6.0,-999.0,62,0.00,,,-99.99,0.000000,,2013-03-10 02:52:00,
2013-03-09 22:02:00,67.0,54.0,-100.00,East,82,5.0,-999.0,62,0.00,,,-99.99,0.000000,,2013-03-10 03:02:00,
2013-03-09 22:12:00,67.0,54.0,-100.00,ENE,77,6.0,-999.0,62,0.00,,,-99.99,0.000000,,2013-03-10 03:12:00,
2013-03-09 22:22:00,67.0,54.0,-100.00,ENE,77,6.0,-999.0,62,0.00,,,-99.99,0.000000,,2013-03-10 03:22:00,
2013-03-09 22:32:00,67.0,54.0,-100.00,East,81,7.0,-999.0,62,0.00,,,-99.99,0.000000,,2013-03-10 03:32:00,
2013-03-09 22:42:00,67.0,54.0,-100.00,East,86,5.0,-999.0,63,0.00,,,-99.99,0.000000,,2013-03-10 03:42:00,
2013-03-09 22:52:00,67.0,54.0,-100.00,East,86,5.0,-999.0,63,0.00,,,-99.99,0.000000,,2013-03-10 03:52:00,
2013-03-09 23:01:00,67.0,53.0,-100.00,East,80,5.0,-999.0,61,0.00,,,-99.99,0.000000,,2013-03-10 04:01:00,
2013-03-09 23:11:00,67.0,53.0,-100.00,ENE,75,5.0,-999.0,61,0.00,,,-99.99,0.000000,,2013-03-10 04:11:00,
2013-03-09 23:21:00,67.0,53.0,-100.00,ENE,75,5.0,-999.0,61,0.00,,,-99.99,0.000000,,2013-03-10 04:21:00,
2013-03-09 23:32:00,66.0,53.0,-100.00,ENE,72,4.0,-999.0,62,0.00,,,-99.99,0.000000,,2013-03-10 04:32:00,
2013-03-09 23:42:00,66.0,53.0,-100.00,ENE,72,3.0,-999.0,63,0.00,,,-99.99,0.000000,,2013-03-10 04:42:00,
2013-03-09 23:52:00,66.0,53.0,-100.00,ENE,72,3.0,-999.0,63,0.00,,,-99.99,0.000000,,2013-03-10 04:52:00,